Location: Unspecified
(0.0000°N, 0.0000°E)
Time: 20:40:32
(UTC+00:00)

Altair - Visible Passes

Search period start: 20 July 2017 00:00
Search period end: 30 July 2017 00:00
Orbit: 1502 x 1682 km, 47.2° (Epoch: 19 July)

Date Brightness Start Highest point End Pass type
(mag) Time Alt. Az. Time Alt. Az. Time Alt. Az.
20 Jul 8.2 03:17:40 10° NNW 03:27:11 53° NE 03:36:57 10° SE visible
20 Jul 8.1 05:23:08 10° WNW 05:31:54 35° SW 05:40:52 10° SSE visible
21 Jul 8.3 02:52:41 10° NNW 03:02:00 47° NE 03:11:33 10° ESE visible
21 Jul 8.0 04:57:39 10° WNW 05:06:41 39° SW 05:15:56 10° SSE visible
22 Jul 8.4 02:27:45 10° NNW 02:36:49 42° NE 02:46:07 10° ESE visible
22 Jul 7.8 04:33:32 15° WNW 04:41:28 44° SW 04:50:58 10° SSE visible
23 Jul 8.9 02:15:34 28° E 02:15:34 28° E 02:20:38 10° ESE visible
23 Jul 7.7 04:13:50 42° W 04:16:16 49° SW 04:25:58 10° SSE visible
24 Jul 9.6 01:54:20 12° ESE 01:54:20 12° ESE 01:55:05 10° ESE visible
24 Jul 7.7 03:52:32 51° SSW 03:52:32 51° SSW 04:00:55 10° SSE visible
25 Jul10.201:32:23ESE01:32:23ESE01:10:00NNWvisible
25 Jul 8.4 03:30:32 35° SSE 03:30:32 35° SSE 03:35:51 10° SSE visible
25 Jul 9.0 05:29:50 10° SW 05:31:28 10° SW 05:33:07 10° SSW visible
26 Jul 9.1 03:08:06 21° SSE 03:08:06 21° SSE 03:10:45 10° SSE visible
26 Jul 9.0 05:06:14 12° SW 05:06:14 12° SW 05:09:52 10° SSW visible
27 Jul 9.6 02:45:23 11° SE 02:45:23 11° SE 02:45:37 10° SE visible
27 Jul 9.1 04:43:29 13° SSW 04:43:29 13° SSW 04:45:46 10° SSW visible
28 Jul 9.2 04:20:30 12° SSW 04:20:30 12° SSW 04:21:23 10° S visible
